DUBAISAT-1

Last updated on Mon Sep 15 2025 00:02:30 GMT+0000 (Coordinated Universal Time)

1 35682U 09041B 25257.14479925 .00001043 00000+0 16545-3 0 9991 2 35682 97.9684 29.2297 0009621 233.3289 126.7036 14.74197166864412
UTC large
Height (km)
Speed (km/s)
/
Latitude / Longitude
Inclination (degrees)
Orbital Period (minutes)
Azimuth
Elevation
Range (km)
Doppler Factor

Next 0 passes for location: London (51.5072 / 0.1276)

Sorry there are no passes over London.